#timestamp,LO_Frequency,Hit,StdDev 
1594638015.8,286046998.0,N
1594638035.6,286046995.6,P
1594638055.4,286046996.0,N
1594638075.3,286046996.4,N
1594638095.1,286046993.3,Y
1594638115.9,286046997.8,P
1594638135.7,286046997.5,P
1594638155.5,286046997.1,P
1594638175.4,286046997.5,Y
1594638195.2,286046998.6,P
1594638215.1,286046998.4,N
1594638216.0,286046998.4,N
1594638235.8,286046998.6,N
1594638255.6,286046999.2,N
1594638275.5,286046999.3,N
1594638295.3,286046996.6,Y
1594638315.1,286046997.1,P
1594638335.9,286046997.2,P
1594638355.7,286046995.5,P
1594638375.6,286046995.5,Y
1594638395.4,286047001.0,P
1594638415.2,286047000.3,N
1594638435.1,286047000.4,N
1594638436.0,286047000.4,N
1594638455.8,286046998.4,N
1594638475.7,286046998.7,N
1594638495.5,286046999.6,N
1594638515.3,286046999.5,N
1594638535.2,286046997.0,N
1594638555.0,286046995.0,Y
1594638555.9,286046995.0,P
1594638575.7,286046996.1,N
1594638595.6,286046995.9,N
1594638615.4,286046995.9,N
1594638635.3,286046996.4,N
1594638655.1,286046993.9,Y
1594638675.8,286046996.6,P
1594638695.7,286046997.1,P
1594638715.5,286046995.3,P
1594638735.4,286046996.1,Y
1594638755.2,286046998.4,P
1594638775.0,286046999.3,N
1594638775.9,286046999.3,N
1594638795.8,286046998.8,N
1594638815.6,286046998.6,N
1594638835.4,286046999.1,N
1594638855.3,286046998.9,N
1594638875.1,286046998.7,N
1594638895.9,286046998.9,N
1594638915.7,286046998.8,N
1594638935.5,286046998.6,N
1594638955.4,286046999.2,N
1594638975.2,286046996.7,Y
1594638995.0,286046998.6,P
1594638995.9,286046998.6,P
1594639015.8,286046996.6,P
1594639035.6,286046996.5,Y
1594639055.5,286046998.3,P
1594639075.3,286046999.4,P
1594639095.1,286046999.2,N
1594639115.9,286046996.8,Y
1594639135.7,286046996.6,P
1594639155.6,286046999.6,N
1594639175.4,286046996.7,N
1594639195.2,286046997.4,N
1594639215.1,286046997.6,N
1594639216.0,286046997.6,N
1594639235.8,286046995.0,Y
1594639255.6,286046998.8,P
1594639275.5,286046999.5,N
1594639295.3,286046999.2,N
1594639315.2,286046999.5,N
1594639365.9,286046995.5,E
1594639375.8,286046999.6,N
1594639395.7,286047001.0,P
1594639415.5,286047000.9,N
1594639435.4,286047001.0,N
1594639455.2,286046998.6,N
1594639475.0,286046998.4,N
1594639475.9,286046998.4,N
1594639495.8,286046998.5,N
1594639515.6,286046999.1,N
1594639535.4,286046999.6,N
1594639555.3,286046999.3,N
1594639575.1,286046997.1,N
1594639595.9,286046996.6,N
1594639615.7,286046997.5,N
1594639635.5,286046995.7,Y
1594639655.4,286046997.6,P
1594639675.2,286046997.6,P
1594639695.1,286046995.2,P
1594639696.0,286046995.2,Y
1594639715.8,286046996.6,P
1594639735.6,286046996.8,P
1594639755.5,286046997.8,P
1594639775.3,286046995.4,Y
1594639795.1,286046999.5,P
1594639815.9,286046999.5,N
1594639835.7,286046996.9,N
1594639855.6,286046999.5,N
1594639875.4,286046996.9,N
1594639895.2,286046997.4,N
1594639915.1,286046995.1,Y
1594639916.0,286046995.1,P
1594639935.8,286046999.0,N
1594639955.6,286046996.7,N
1594639975.5,286046999.5,N
1594639995.3,286046997.3,N
1594640015.2,286046999.5,N
1594640035.9,286046997.0,N
1594640055.7,286046997.0,N
1594640075.6,286046999.5,N
1594640095.4,286046997.7,N
1594640115.2,286046997.1,N
1594640165.1,286046997.0,E
1594640175.0,286046998.2,N
1594640175.9,286046998.2,P
1594640195.8,286047002.3,P
1594640215.6,286047000.5,N
1594640235.5,286047000.3,N
1594640255.3,286046998.7,N
1594640275.1,286046996.8,N
1594640295.9,286046997.1,N
1594640315.7,286046997.2,N
1594640335.5,286046997.4,N
1594640355.4,286046997.4,N
1594640375.2,286046997.7,N
1594640395.0,286046997.8,N
1594640396.0,286046997.8,N
1594640415.8,286046997.8,N
1594640435.6,286046997.5,N
1594640455.5,286046997.6,N
1594640475.3,286046997.7,N
1594640495.1,286046993.3,Y
1594640515.9,286046995.7,P
1594640535.7,286046995.8,P
1594640555.6,286046995.0,P
1594640575.4,286046995.5,Y
1594640595.2,286046997.3,P
1594640615.1,286046995.2,P
1594640616.0,286046995.2,P
1594640635.8,286046993.3,Y
1594640655.7,286046997.2,P
1594640675.5,286046995.1,P
1594640695.3,286046995.0,P
1594640715.2,286046997.4,N
1594640735.9,286046996.7,Y
1594640755.7,286047002.0,P
1594640775.6,286047002.2,N
1594640795.4,286047002.7,N
1594640815.3,286047000.8,N
1594640835.1,286046998.8,N
1594640836.0,286046998.8,N
1594640855.8,286046997.8,N
1594640875.7,286046997.5,N
1594640895.5,286046995.4,N
1594640915.3,286046995.6,N
1594640935.2,286046994.0,N
1594640955.0,286046991.7,N
1594640955.9,286046991.7,N
1594640975.8,286046994.8,N
1594640995.6,286046992.3,N
1594641015.4,286046990.1,N
1594641035.3,286046993.0,N
1594641055.1,286046992.7,N
1594641075.8,286046991.7,N
1594641095.7,286046992.4,N
1594641115.5,286046990.6,N
1594641135.4,286046990.3,N
1594641155.2,286046990.8,N
1594641175.0,286046990.9,N
1594641175.9,286046990.9,N
1594641195.8,286046991.4,N
1594641215.6,286046991.6,N
1594641235.5,286046988.9,N
1594641255.3,286046989.5,N
1594641275.1,286046990.0,N
1594641295.9,286046987.9,N
1594641315.7,286046988.2,N
1594641335.6,286046987.6,Y
1594641355.4,286046993.6,P
1594641375.2,286046993.9,P
1594641395.1,286046993.6,P
1594641396.0,286046993.6,Y
1594641415.8,286047001.0,P
1594641435.7,286046998.8,N
1594641455.5,286046999.4,N
1594641475.3,286046997.2,N
1594641495.2,286046996.8,N
1594641515.0,286046997.9,N
1594641515.9,286046997.9,N
1594641535.7,286046997.3,N
1594641555.6,286046997.8,N
1594641575.4,286046995.8,N
1594641595.3,286046995.2,N
